Time,TemperatureF,DewpointF,PressureIn,WindDirection,WindDirectionDegrees,WindSpeedMPH,WindSpeedGustMPH,Humidity,HourlyPrecipIn,Conditions,Clouds,dailyrainin,SoftwareType,DateUTC
2013-01-04 00:01:00,14.2,11.0,29.09,SSW,202,2.1,8.4,92,0.00,,,0.00,Rainwise IP-100,2013-01-04 06:01:00,
2013-01-04 00:06:00,14.4,11.0,29.09,SW,225,3.7,8.4,91,0.00,,,0.00,Rainwise IP-100,2013-01-04 06:06:00,
2013-01-04 00:11:00,14.5,14.0,29.09,SSW,202,2.1,7.9,91,0.00,,,0.00,Rainwise IP-100,2013-01-04 06:11:00,
2013-01-04 00:16:00,14.6,14.0,29.08,SSW,202,2.3,6.1,91,0.00,,,0.00,Rainwise IP-100,2013-01-04 06:16:00,
2013-01-04 00:21:00,14.6,14.0,29.08,SW,225,4.2,6.1,91,0.00,,,0.00,Rainwise IP-100,2013-01-04 06:21:00,
2013-01-04 00:26:00,14.7,14.0,29.07,SSW,202,3.0,8.2,91,0.00,,,0.00,Rainwise IP-100,2013-01-04 06:26:00,
2013-01-04 00:31:00,14.9,14.0,29.07,SW,225,6.1,7.9,91,0.00,,,0.00,Rainwise IP-100,2013-01-04 06:31:00,
2013-01-04 00:36:00,15.1,14.0,29.07,SSW,202,3.3,8.2,91,0.00,,,0.00,Rainwise IP-100,2013-01-04 06:36:00,
2013-01-04 00:41:00,15.2,14.0,29.06,SSW,202,4.2,5.6,91,0.00,,,0.00,Rainwise IP-100,2013-01-04 06:41:00,
2013-01-04 00:46:00,15.3,14.0,29.06,SSW,202,3.3,7.0,91,0.00,,,0.00,Rainwise IP-100,2013-01-04 06:46:00,
2013-01-04 00:51:00,15.5,14.0,29.06,South,180,1.6,7.0,91,0.00,,,0.00,Rainwise IP-100,2013-01-04 06:51:00,
2013-01-04 00:56:00,15.8,14.0,29.06,SSW,202,3.7,9.8,90,0.00,,,0.00,Rainwise IP-100,2013-01-04 06:56:00,
2013-01-04 01:01:00,16.0,14.0,29.06,South,180,2.8,7.5,90,0.00,,,0.00,Rainwise IP-100,2013-01-04 07:01:00,
2013-01-04 01:06:00,16.1,14.0,29.06,SSW,202,2.3,6.3,90,0.00,,,0.00,Rainwise IP-100,2013-01-04 07:06:00,
2013-01-04 01:11:00,16.3,14.0,29.06,SSW,202,5.4,10.5,90,0.00,,,0.00,Rainwise IP-100,2013-01-04 07:11:00,
2013-01-04 01:16:00,16.6,16.0,29.05,SSW,202,4.7,9.8,89,0.00,,,0.00,Rainwise IP-100,2013-01-04 07:16:00,
2013-01-04 01:21:00,16.8,16.0,29.05,SW,225,6.5,10.0,89,0.00,,,0.00,Rainwise IP-100,2013-01-04 07:21:00,
2013-01-04 01:26:00,16.9,16.0,29.05,SW,225,2.3,8.9,89,0.00,,,0.00,Rainwise IP-100,2013-01-04 07:26:00,
2013-01-04 01:31:00,16.9,16.0,29.05,SW,225,3.7,11.4,89,0.00,,,0.00,Rainwise IP-100,2013-01-04 07:31:00,
2013-01-04 01:36:00,16.9,16.0,29.06,SW,225,6.8,8.2,89,0.00,,,0.00,Rainwise IP-100,2013-01-04 07:36:00,
2013-01-04 01:41:00,16.9,16.0,29.06,SSW,202,3.5,10.5,89,0.00,,,0.00,Rainwise IP-100,2013-01-04 07:41:00,
2013-01-04 01:46:00,16.8,16.0,29.05,SSW,202,2.8,7.0,89,0.00,,,0.00,Rainwise IP-100,2013-01-04 07:46:00,
2013-01-04 01:51:00,16.8,16.0,29.06,SSW,202,5.8,6.5,89,0.00,,,0.00,Rainwise IP-100,2013-01-04 07:51:00,
2013-01-04 01:56:00,16.8,16.0,29.05,WSW,247,5.6,7.5,89,0.00,,,0.00,Rainwise IP-100,2013-01-04 07:56:00,
2013-01-04 02:01:00,16.9,16.0,29.05,SW,225,3.0,8.2,89,0.00,,,0.00,Rainwise IP-100,2013-01-04 08:01:00,
2013-01-04 02:06:00,16.8,16.0,29.05,South,180,2.8,7.0,88,0.00,,,0.00,Rainwise IP-100,2013-01-04 08:06:00,
2013-01-04 02:11:00,16.8,16.0,29.05,SW,225,4.7,6.5,88,0.00,,,0.00,Rainwise IP-100,2013-01-04 08:11:00,
2013-01-04 02:16:00,16.9,16.0,29.05,SSW,202,1.9,7.0,88,0.00,,,0.00,Rainwise IP-100,2013-01-04 08:16:00,
2013-01-04 02:21:00,17.1,16.0,29.05,SW,225,6.3,7.5,88,0.00,,,0.00,Rainwise IP-100,2013-01-04 08:21:00,
2013-01-04 02:26:00,17.4,16.0,29.05,SW,225,7.2,10.0,88,0.00,,,0.00,Rainwise IP-100,2013-01-04 08:26:00,
2013-01-04 02:31:00,17.7,16.0,29.05,SW,225,4.2,13.3,88,0.00,,,0.00,Rainwise IP-100,2013-01-04 08:31:00,
2013-01-04 02:36:00,18.1,16.0,29.04,South,180,2.8,9.8,87,0.00,,,0.00,Rainwise IP-100,2013-01-04 08:36:00,
2013-01-04 02:41:00,18.3,16.0,29.04,SSW,202,6.3,7.7,87,0.00,,,0.00,Rainwise IP-100,2013-01-04 08:41:00,
2013-01-04 02:46:00,18.5,18.0,29.05,WSW,247,3.3,9.6,87,0.00,,,0.00,Rainwise IP-100,2013-01-04 08:46:00,
2013-01-04 02:51:00,18.5,16.0,29.05,West,270,5.1,9.6,86,0.00,,,0.00,Rainwise IP-100,2013-01-04 08:51:00,
2013-01-04 02:54:00,18.5,16.0,29.05,WSW,247,7.0,10.5,86,0.00,,,0.00,Rainwise IP-100,2013-01-04 08:54:00,
2013-01-04 02:57:00,18.5,16.0,29.04,SSW,202,3.7,10.5,86,0.00,,,0.00,Rainwise IP-100,2013-01-04 08:57:00,
2013-01-04 03:02:00,18.5,16.0,29.04,SW,225,6.5,9.3,86,0.00,,,0.00,Rainwise IP-100,2013-01-04 09:02:00,
2013-01-04 03:07:00,18.5,16.0,29.04,WSW,247,3.3,10.7,86,0.00,,,0.00,Rainwise IP-100,2013-01-04 09:07:00,
2013-01-04 03:12:00,18.5,16.0,29.04,WSW,247,3.5,8.2,86,0.00,,,0.00,Rainwise IP-100,2013-01-04 09:12:00,
2013-01-04 03:17:00,18.5,16.0,29.03,South,180,4.4,7.0,86,0.00,,,0.00,Rainwise IP-100,2013-01-04 09:17:00,
2013-01-04 03:22:00,18.5,16.0,29.03,SSW,202,3.7,10.5,86,0.00,,,0.00,Rainwise IP-100,2013-01-04 09:22:00,
2013-01-04 03:27:00,18.6,16.0,29.03,SW,225,6.8,8.9,86,0.00,,,0.00,Rainwise IP-100,2013-01-04 09:27:00,
2013-01-04 03:32:00,18.7,16.0,29.03,SW,225,4.9,9.3,86,0.00,,,0.00,Rainwise IP-100,2013-01-04 09:32:00,
2013-01-04 03:37:00,18.7,16.0,29.02,South,180,4.2,11.0,86,0.00,,,0.00,Rainwise IP-100,2013-01-04 09:37:00,
2013-01-04 03:42:00,18.2,16.0,29.02,SSW,202,2.6,6.3,86,0.00,,,0.00,Rainwise IP-100,2013-01-04 09:42:00,
2013-01-04 03:47:00,17.5,16.0,29.03,SSW,202,4.2,5.8,86,0.00,,,0.00,Rainwise IP-100,2013-01-04 09:47:00,
2013-01-04 03:52:00,17.1,16.0,29.02,SSW,202,3.0,5.4,86,0.00,,,0.00,Rainwise IP-100,2013-01-04 09:52:00,
2013-01-04 03:57:00,17.2,16.0,29.02,SW,225,3.0,9.1,87,0.00,,,0.00,Rainwise IP-100,2013-01-04 09:57:00,
2013-01-04 04:02:00,17.3,16.0,29.02,SSW,202,1.4,5.1,87,0.00,,,0.00,Rainwise IP-100,2013-01-04 10:02:00,
2013-01-04 04:07:00,17.4,16.0,29.01,SSW,202,1.9,9.3,87,0.00,,,0.00,Rainwise IP-100,2013-01-04 10:07:00,
2013-01-04 04:12:00,17.5,16.0,29.02,South,180,0.0,6.1,87,0.00,,,0.00,Rainwise IP-100,2013-01-04 10:12:00,
2013-01-04 04:17:00,17.7,16.0,29.02,SSW,202,5.8,7.2,87,0.00,,,0.00,Rainwise IP-100,2013-01-04 10:17:00,
2013-01-04 04:22:00,17.9,16.0,29.02,SSW,202,2.6,7.0,87,0.00,,,0.00,Rainwise IP-100,2013-01-04 10:22:00,
2013-01-04 04:27:00,18.1,16.0,29.02,SW,225,5.8,7.2,87,0.00,,,0.00,Rainwise IP-100,2013-01-04 10:27:00,
2013-01-04 04:32:00,18.2,16.0,29.02,SW,225,4.4,8.2,87,0.00,,,0.00,Rainwise IP-100,2013-01-04 10:32:00,
2013-01-04 04:37:00,18.3,16.0,29.02,SW,225,6.1,7.7,86,0.00,,,0.00,Rainwise IP-100,2013-01-04 10:37:00,
2013-01-04 04:42:00,18.4,16.0,29.03,SW,225,7.5,7.5,86,0.00,,,0.00,Rainwise IP-100,2013-01-04 10:42:00,
2013-01-04 04:47:00,18.4,16.0,29.02,SW,225,3.7,8.9,86,0.00,,,0.00,Rainwise IP-100,2013-01-04 10:47:00,
2013-01-04 04:52:00,18.5,16.0,29.02,SW,225,4.4,7.2,86,0.00,,,0.00,Rainwise IP-100,2013-01-04 10:52:00,
2013-01-04 04:57:00,18.4,16.0,29.03,WSW,247,4.0,7.2,86,0.00,,,0.00,Rainwise IP-100,2013-01-04 10:57:00,
2013-01-04 05:02:00,18.4,16.0,29.02,SW,225,4.9,9.8,86,0.00,,,0.00,Rainwise IP-100,2013-01-04 11:02:00,
2013-01-04 05:07:00,18.4,16.0,29.02,SW,225,5.6,10.7,86,0.00,,,0.00,Rainwise IP-100,2013-01-04 11:07:00,
2013-01-04 05:12:00,18.4,16.0,29.02,SW,225,6.3,9.8,86,0.00,,,0.00,Rainwise IP-100,2013-01-04 11:12:00,
2013-01-04 05:17:00,18.4,16.0,29.02,West,270,4.4,9.8,86,0.00,,,0.00,Rainwise IP-100,2013-01-04 11:17:00,
2013-01-04 05:22:00,18.4,16.0,29.02,WSW,247,6.5,8.2,86,0.00,,,0.00,Rainwise IP-100,2013-01-04 11:22:00,
2013-01-04 05:27:00,18.3,16.0,29.03,WSW,247,5.6,8.6,86,0.00,,,0.00,Rainwise IP-100,2013-01-04 11:27:00,
2013-01-04 05:32:00,18.2,16.0,29.03,WSW,247,1.9,7.0,86,0.00,,,0.00,Rainwise IP-100,2013-01-04 11:32:00,
2013-01-04 05:37:00,17.8,16.0,29.04,SW,225,4.7,5.4,86,0.00,,,0.00,Rainwise IP-100,2013-01-04 11:37:00,
2013-01-04 05:42:00,17.4,16.0,29.03,WSW,247,3.5,5.6,86,0.00,,,0.00,Rainwise IP-100,2013-01-04 11:42:00,
2013-01-04 05:47:00,17.4,16.0,29.03,WSW,247,3.0,5.1,86,0.00,,,0.00,Rainwise IP-100,2013-01-04 11:47:00,
2013-01-04 05:52:00,17.5,16.0,29.03,SW,225,3.7,7.2,87,0.00,,,0.00,Rainwise IP-100,2013-01-04 11:52:00,
2013-01-04 05:57:00,17.5,16.0,29.04,WSW,247,2.3,6.1,87,0.00,,,0.00,Rainwise IP-100,2013-01-04 11:57:00,
2013-01-04 06:02:00,17.2,16.0,29.03,WSW,247,3.0,5.1,86,0.00,,,0.00,Rainwise IP-100,2013-01-04 12:02:00,
2013-01-04 06:07:00,17.1,16.0,29.04,SW,225,3.7,6.1,86,0.00,,,0.00,Rainwise IP-100,2013-01-04 12:07:00,
2013-01-04 06:12:00,17.3,16.0,29.04,WSW,247,3.7,5.6,87,0.00,,,0.00,Rainwise IP-100,2013-01-04 12:12:00,
2013-01-04 06:17:00,17.4,16.0,29.04,SW,225,2.1,4.4,87,0.00,,,0.00,Rainwise IP-100,2013-01-04 12:17:00,
2013-01-04 06:22:00,17.6,16.0,29.03,SW,225,1.2,5.6,87,0.00,,,0.00,Rainwise IP-100,2013-01-04 12:22:00,
2013-01-04 06:27:00,17.7,16.0,29.04,SW,225,2.6,5.8,87,0.00,,,0.00,Rainwise IP-100,2013-01-04 12:27:00,
2013-01-04 06:32:00,18.0,16.0,29.04,SW,225,4.4,5.1,87,0.00,,,0.00,Rainwise IP-100,2013-01-04 12:32:00,
2013-01-04 06:37:00,18.1,16.0,29.04,WSW,247,3.0,5.6,86,0.00,,,0.00,Rainwise IP-100,2013-01-04 12:37:00,
2013-01-04 06:42:00,17.9,16.0,29.04,SW,225,3.3,4.0,86,0.00,,,0.00,Rainwise IP-100,2013-01-04 12:42:00,
2013-01-04 06:47:00,17.8,16.0,29.04,SW,225,3.0,5.1,86,0.00,,,0.00,Rainwise IP-100,2013-01-04 12:47:00,
2013-01-04 06:52:00,17.8,16.0,29.04,WSW,247,3.7,5.6,86,0.00,,,0.00,Rainwise IP-100,2013-01-04 12:52:00,
2013-01-04 06:57:00,17.8,16.0,29.04,SW,225,2.8,7.0,86,0.00,,,0.00,Rainwise IP-100,2013-01-04 12:57:00,
2013-01-04 07:02:00,17.9,16.0,29.04,WSW,247,3.0,5.6,86,0.00,,,0.00,Rainwise IP-100,2013-01-04 13:02:00,
2013-01-04 07:07:00,17.8,16.0,29.04,WSW,247,7.5,7.5,86,0.00,,,0.00,Rainwise IP-100,2013-01-04 13:07:00,
2013-01-04 07:12:00,17.7,16.0,29.04,WSW,247,4.4,7.5,86,0.00,,,0.00,Rainwise IP-100,2013-01-04 13:12:00,
2013-01-04 07:17:00,17.7,16.0,29.04,WSW,247,3.3,7.0,86,0.00,,,0.00,Rainwise IP-100,2013-01-04 13:17:00,
2013-01-04 07:22:00,17.7,16.0,29.04,SW,225,4.4,8.6,86,0.00,,,0.00,Rainwise IP-100,2013-01-04 13:22:00,
2013-01-04 07:27:00,17.9,16.0,29.04,SW,225,6.3,8.9,86,0.00,,,0.00,Rainwise IP-100,2013-01-04 13:27:00,
2013-01-04 07:32:00,18.2,16.0,29.04,SW,225,7.0,10.3,86,0.00,,,0.00,Rainwise IP-100,2013-01-04 13:32:00,
2013-01-04 07:37:00,18.4,16.0,29.04,SW,225,7.7,10.7,85,0.00,,,0.00,Rainwise IP-100,2013-01-04 13:37:00,
2013-01-04 07:42:00,18.5,16.0,29.03,SW,225,5.6,9.6,85,0.00,,,0.00,Rainwise IP-100,2013-01-04 13:42:00,
2013-01-04 07:47:00,18.7,16.0,29.03,SW,225,8.6,12.1,84,0.00,,,0.00,Rainwise IP-100,2013-01-04 13:47:00,
2013-01-04 07:52:00,18.7,16.0,29.03,WSW,247,7.2,10.0,84,0.00,,,0.00,Rainwise IP-100,2013-01-04 13:52:00,
2013-01-04 07:57:00,18.6,16.0,29.04,SW,225,5.1,8.9,84,0.00,,,0.00,Rainwise IP-100,2013-01-04 13:57:00,
2013-01-04 08:02:00,18.4,14.0,29.04,West,270,5.8,11.0,84,0.00,,,0.00,Rainwise IP-100,2013-01-04 14:02:00,
2013-01-04 08:07:00,18.2,14.0,29.05,WSW,247,7.5,11.0,84,0.00,,,0.00,Rainwise IP-100,2013-01-04 14:07:00,
2013-01-04 08:12:00,18.1,14.0,29.05,West,270,1.9,8.4,84,0.00,,,0.00,Rainwise IP-100,2013-01-04 14:12:00,
2013-01-04 08:17:00,17.9,14.0,29.06,WSW,247,4.4,8.6,84,0.00,,,0.00,Rainwise IP-100,2013-01-04 14:17:00,
2013-01-04 08:22:00,17.9,14.0,29.06,WSW,247,5.4,8.2,84,0.00,,,0.00,Rainwise IP-100,2013-01-04 14:22:00,
2013-01-04 08:27:00,18.1,14.0,29.06,SW,225,3.5,6.1,84,0.00,,,0.00,Rainwise IP-100,2013-01-04 14:27:00,
2013-01-04 08:32:00,18.1,14.0,29.06,WSW,247,2.8,5.6,84,0.00,,,0.00,Rainwise IP-100,2013-01-04 14:32:00,
2013-01-04 08:37:00,17.9,14.0,29.06,WSW,247,2.8,6.1,83,0.00,,,0.00,Rainwise IP-100,2013-01-04 14:37:00,
2013-01-04 08:42:00,18.1,14.0,29.06,WSW,247,4.4,6.1,83,0.00,,,0.00,Rainwise IP-100,2013-01-04 14:42:00,
2013-01-04 08:47:00,18.6,16.0,29.06,West,270,4.0,6.1,83,0.00,,,0.00,Rainwise IP-100,2013-01-04 14:47:00,
2013-01-04 08:52:00,18.6,16.0,29.06,SW,225,1.6,5.4,82,0.00,,,0.00,Rainwise IP-100,2013-01-04 14:52:00,
2013-01-04 08:57:00,19.1,16.0,29.07,NW,315,3.5,5.8,81,0.00,,,0.00,Rainwise IP-100,2013-01-04 14:57:00,
2013-01-04 09:02:00,19.2,16.0,29.07,WSW,247,6.1,7.5,81,0.00,,,0.00,Rainwise IP-100,2013-01-04 15:02:00,
2013-01-04 09:07:00,19.3,16.0,29.07,WSW,247,4.9,8.2,81,0.00,,,0.00,Rainwise IP-100,2013-01-04 15:07:00,
2013-01-04 09:12:00,19.4,16.0,29.07,West,270,4.2,6.8,80,0.00,,,0.00,Rainwise IP-100,2013-01-04 15:12:00,
2013-01-04 09:17:00,19.5,16.0,29.08,WSW,247,7.0,7.9,80,0.00,,,0.00,Rainwise IP-100,2013-01-04 15:17:00,
2013-01-04 09:22:00,19.8,16.0,29.08,WSW,247,5.4,7.9,80,0.00,,,0.00,Rainwise IP-100,2013-01-04 15:22:00,
2013-01-04 09:27:00,19.9,16.0,29.08,WSW,247,4.9,5.4,79,0.00,,,0.00,Rainwise IP-100,2013-01-04 15:27:00,
2013-01-04 09:33:00,20.0,16.0,29.09,SW,225,5.8,5.8,79,0.00,,,0.00,Rainwise IP-100,2013-01-04 15:33:00,
2013-01-04 09:38:00,20.2,16.0,29.08,WSW,247,8.9,8.9,79,0.00,,,0.00,Rainwise IP-100,2013-01-04 15:38:00,
2013-01-04 09:43:00,20.4,16.0,29.09,WSW,247,5.1,9.1,78,0.00,,,0.00,Rainwise IP-100,2013-01-04 15:43:00,
2013-01-04 09:48:00,20.7,16.0,29.09,WSW,247,8.2,8.2,78,0.00,,,0.00,Rainwise IP-100,2013-01-04 15:48:00,
2013-01-04 09:53:00,21.1,14.0,29.09,WNW,292,1.2,8.2,77,0.00,,,0.00,Rainwise IP-100,2013-01-04 15:53:00,
2013-01-04 09:58:00,21.2,14.0,29.09,WSW,247,4.4,8.4,77,0.00,,,0.00,Rainwise IP-100,2013-01-04 15:58:00,
2013-01-04 10:03:00,21.3,14.0,29.10,WSW,247,5.1,7.2,77,0.00,,,0.00,Rainwise IP-100,2013-01-04 16:03:00,
2013-01-04 10:08:00,21.6,16.0,29.10,WSW,247,2.8,5.1,76,0.00,,,0.00,Rainwise IP-100,2013-01-04 16:08:00,
2013-01-04 10:13:00,21.8,16.0,29.10,West,270,4.7,6.8,76,0.00,,,0.00,Rainwise IP-100,2013-01-04 16:13:00,
2013-01-04 10:18:00,22.0,16.0,29.10,SSW,202,0.0,4.9,75,0.00,,,0.00,Rainwise IP-100,2013-01-04 16:18:00,
2013-01-04 10:23:00,22.3,16.0,29.10,SW,225,6.1,6.1,75,0.00,,,0.00,Rainwise IP-100,2013-01-04 16:23:00,
2013-01-04 10:28:00,22.4,16.0,29.10,WSW,247,5.8,6.1,75,0.00,,,0.00,Rainwise IP-100,2013-01-04 16:28:00,
2013-01-04 10:33:00,22.5,16.0,29.10,WNW,292,7.7,7.7,74,0.00,,,0.00,Rainwise IP-100,2013-01-04 16:33:00,
2013-01-04 10:38:00,22.7,16.0,29.11,SW,225,4.2,9.1,74,0.00,,,0.00,Rainwise IP-100,2013-01-04 16:38:00,
2013-01-04 10:43:00,22.8,16.0,29.11,West,270,4.9,9.3,74,0.00,,,0.00,Rainwise IP-100,2013-01-04 16:43:00,
2013-01-04 10:48:00,22.7,16.0,29.11,SW,225,6.1,9.3,74,0.00,,,0.00,Rainwise IP-100,2013-01-04 16:48:00,
2013-01-04 10:53:00,22.8,16.0,29.10,WNW,292,4.7,10.5,74,0.00,,,0.00,Rainwise IP-100,2013-01-04 16:53:00,
2013-01-04 10:58:00,22.9,16.0,29.10,SW,225,1.4,9.1,74,0.00,,,0.00,Rainwise IP-100,2013-01-04 16:58:00,
2013-01-04 11:03:00,23.1,16.0,29.11,SW,225,5.6,7.7,74,0.00,,,0.00,Rainwise IP-100,2013-01-04 17:03:00,
2013-01-04 11:08:00,23.2,16.0,29.11,WSW,247,7.7,9.3,73,0.00,,,0.00,Rainwise IP-100,2013-01-04 17:08:00,
2013-01-04 11:13:00,23.3,16.0,29.11,WSW,247,7.0,9.1,73,0.00,,,0.00,Rainwise IP-100,2013-01-04 17:13:00,
2013-01-04 11:18:00,23.3,16.0,29.10,SW,225,6.5,8.6,73,0.00,,,0.00,Rainwise IP-100,2013-01-04 17:18:00,
2013-01-04 11:23:00,23.4,16.0,29.11,WSW,247,7.0,10.7,73,0.00,,,0.00,Rainwise IP-100,2013-01-04 17:23:00,
2013-01-04 11:28:00,23.5,16.0,29.11,WSW,247,7.7,9.1,73,0.00,,,0.00,Rainwise IP-100,2013-01-04 17:28:00,
2013-01-04 11:33:00,23.6,16.0,29.11,SW,225,8.6,10.7,72,0.00,,,0.00,Rainwise IP-100,2013-01-04 17:33:00,
2013-01-04 11:38:00,23.6,16.0,29.11,WSW,247,3.7,9.3,72,0.00,,,0.00,Rainwise IP-100,2013-01-04 17:38:00,
2013-01-04 11:43:00,23.7,16.0,29.11,SW,225,7.2,9.6,72,0.00,,,0.00,Rainwise IP-100,2013-01-04 17:43:00,
2013-01-04 11:48:00,23.9,16.0,29.10,West,270,2.6,9.6,72,0.00,,,0.00,Rainwise IP-100,2013-01-04 17:48:00,
2013-01-04 11:53:00,24.1,16.0,29.11,WSW,247,5.4,6.5,72,0.00,,,0.00,Rainwise IP-100,2013-01-04 17:53:00,
2013-01-04 11:58:00,24.2,16.0,29.11,WSW,247,5.1,8.4,72,0.00,,,0.00,Rainwise IP-100,2013-01-04 17:58:00,
2013-01-04 12:03:00,24.3,16.0,29.11,SW,225,6.5,7.5,72,0.00,,,0.00,Rainwise IP-100,2013-01-04 18:03:00,
2013-01-04 12:08:00,24.6,18.0,29.11,SW,225,4.4,7.9,71,0.00,,,0.00,Rainwise IP-100,2013-01-04 18:08:00,
2013-01-04 12:13:00,25.0,18.0,29.11,WSW,247,5.1,7.9,70,0.00,,,0.00,Rainwise IP-100,2013-01-04 18:13:00,
2013-01-04 12:18:00,25.1,18.0,29.11,WSW,247,4.0,9.8,70,0.00,,,0.00,Rainwise IP-100,2013-01-04 18:18:00,
2013-01-04 12:23:00,25.1,18.0,29.10,SW,225,6.8,7.7,70,0.00,,,0.00,Rainwise IP-100,2013-01-04 18:23:00,
2013-01-04 12:28:00,25.3,18.0,29.11,SW,225,4.0,7.9,70,0.00,,,0.00,Rainwise IP-100,2013-01-04 18:28:00,
2013-01-04 12:33:00,25.5,18.0,29.10,SW,225,6.1,7.9,70,0.00,,,0.00,Rainwise IP-100,2013-01-04 18:33:00,
2013-01-04 12:39:00,25.5,18.0,29.10,West,270,4.7,6.8,69,0.00,,,0.00,Rainwise IP-100,2013-01-04 18:39:00,
2013-01-04 12:44:00,25.5,18.0,29.10,West,270,4.0,8.6,69,0.00,,,0.00,Rainwise IP-100,2013-01-04 18:44:00,
2013-01-04 12:49:00,25.6,18.0,29.10,SW,225,4.9,7.9,70,0.00,,,0.00,Rainwise IP-100,2013-01-04 18:49:00,
2013-01-04 12:54:00,26.0,18.0,29.10,SSW,202,2.3,6.8,70,0.00,,,0.00,Rainwise IP-100,2013-01-04 18:54:00,
2013-01-04 12:59:00,26.0,18.0,29.10,SW,225,7.5,7.7,69,0.00,,,0.00,Rainwise IP-100,2013-01-04 18:59:00,
2013-01-04 13:04:00,25.7,18.0,29.09,WSW,247,7.7,8.9,69,0.00,,,0.00,Rainwise IP-100,2013-01-04 19:04:00,
2013-01-04 13:09:00,25.8,18.0,29.10,WSW,247,6.3,7.7,70,0.00,,,0.00,Rainwise IP-100,2013-01-04 19:09:00,
2013-01-04 13:14:00,25.8,18.0,29.10,SW,225,2.1,7.0,70,0.00,,,0.00,Rainwise IP-100,2013-01-04 19:14:00,
2013-01-04 13:19:00,25.8,18.0,29.09,WSW,247,3.0,6.3,70,0.00,,,0.00,Rainwise IP-100,2013-01-04 19:19:00,
2013-01-04 13:24:00,25.9,18.0,29.10,West,270,5.1,6.1,70,0.00,,,0.00,Rainwise IP-100,2013-01-04 19:24:00,
2013-01-04 13:29:00,25.9,18.0,29.09,WSW,247,2.1,6.1,70,0.00,,,0.00,Rainwise IP-100,2013-01-04 19:29:00,
2013-01-04 13:34:00,26.0,18.0,29.09,WSW,247,3.5,5.1,70,0.00,,,0.00,Rainwise IP-100,2013-01-04 19:34:00,
2013-01-04 13:39:00,26.0,18.0,29.09,SW,225,4.2,6.3,69,0.00,,,0.00,Rainwise IP-100,2013-01-04 19:39:00,
2013-01-04 13:44:00,26.1,18.0,29.09,WSW,247,5.6,6.1,69,0.00,,,0.00,Rainwise IP-100,2013-01-04 19:44:00,
2013-01-04 13:50:00,26.1,18.0,29.10,SW,225,2.8,5.8,69,0.00,,,0.00,Rainwise IP-100,2013-01-04 19:50:00,
2013-01-04 13:55:00,26.3,18.0,29.09,SW,225,4.7,4.7,69,0.00,,,0.00,Rainwise IP-100,2013-01-04 19:55:00,
2013-01-04 14:00:00,26.4,18.0,29.09,SW,225,5.1,5.4,69,0.00,,,0.00,Rainwise IP-100,2013-01-04 20:00:00,
2013-01-04 14:05:00,26.5,18.0,29.10,SW,225,4.4,7.2,69,0.00,,,0.00,Rainwise IP-100,2013-01-04 20:05:00,
2013-01-04 14:10:00,26.3,18.0,29.10,SW,225,6.1,7.0,69,0.00,,,0.00,Rainwise IP-100,2013-01-04 20:10:00,
2013-01-04 14:15:00,26.2,18.0,29.10,WSW,247,7.0,7.0,69,0.00,,,0.00,Rainwise IP-100,2013-01-04 20:15:00,
2013-01-04 14:20:00,26.3,18.0,29.10,WSW,247,5.1,7.7,69,0.00,,,0.00,Rainwise IP-100,2013-01-04 20:20:00,
2013-01-04 14:25:00,26.4,18.0,29.10,SSW,202,1.2,7.7,69,0.00,,,0.00,Rainwise IP-100,2013-01-04 20:25:00,
2013-01-04 14:30:00,26.3,18.0,29.10,SW,225,4.4,5.8,69,0.00,,,0.00,Rainwise IP-100,2013-01-04 20:30:00,
2013-01-04 14:35:00,26.0,18.0,29.10,SSW,202,3.7,7.0,69,0.00,,,0.00,Rainwise IP-100,2013-01-04 20:35:00,
2013-01-04 14:40:00,25.8,18.0,29.10,WSW,247,4.4,5.4,70,0.00,,,0.00,Rainwise IP-100,2013-01-04 20:40:00,
2013-01-04 14:45:00,25.7,18.0,29.10,SW,225,2.1,5.8,70,0.00,,,0.00,Rainwise IP-100,2013-01-04 20:45:00,
2013-01-04 14:50:00,25.6,18.0,29.10,West,270,2.1,6.8,70,0.00,,,0.00,Rainwise IP-100,2013-01-04 20:50:00,
2013-01-04 14:55:00,25.6,18.0,29.10,WSW,247,6.8,8.4,71,0.00,,,0.00,Rainwise IP-100,2013-01-04 20:55:00,
2013-01-04 15:00:00,25.7,18.0,29.11,WSW,247,5.1,8.4,70,0.00,,,0.00,Rainwise IP-100,2013-01-04 21:00:00,
2013-01-04 15:05:00,25.7,18.0,29.10,WSW,247,2.3,9.1,70,0.00,,,0.00,Rainwise IP-100,2013-01-04 21:05:00,
2013-01-04 15:10:00,25.6,18.0,29.11,SW,225,4.9,7.7,70,0.00,,,0.00,Rainwise IP-100,2013-01-04 21:10:00,
2013-01-04 15:15:00,25.5,18.0,29.11,SW,225,6.1,6.8,71,0.00,,,0.00,Rainwise IP-100,2013-01-04 21:15:00,
2013-01-04 15:21:00,25.4,18.0,29.11,WSW,247,6.1,7.9,71,0.00,,,0.00,Rainwise IP-100,2013-01-04 21:21:00,
2013-01-04 15:26:00,25.4,18.0,29.12,WSW,247,4.2,6.8,72,0.00,,,0.00,Rainwise IP-100,2013-01-04 21:26:00,
2013-01-04 15:32:00,25.5,18.0,29.12,SW,225,5.6,7.7,71,0.00,,,0.00,Rainwise IP-100,2013-01-04 21:32:00,
2013-01-04 15:37:00,25.5,18.0,29.12,SW,225,3.0,7.5,71,0.00,,,0.00,Rainwise IP-100,2013-01-04 21:37:00,
2013-01-04 15:42:00,25.6,18.0,29.11,WSW,247,4.2,7.7,71,0.00,,,0.00,Rainwise IP-100,2013-01-04 21:42:00,
2013-01-04 15:47:00,25.6,18.0,29.12,WSW,247,7.2,8.6,71,0.00,,,0.00,Rainwise IP-100,2013-01-04 21:47:00,
2013-01-04 15:52:00,25.5,18.0,29.12,SW,225,3.3,7.2,71,0.00,,,0.00,Rainwise IP-100,2013-01-04 21:52:00,
2013-01-04 15:57:00,25.4,18.0,29.12,West,270,2.1,7.0,72,0.00,,,0.00,Rainwise IP-100,2013-01-04 21:57:00,
2013-01-04 16:02:00,25.3,18.0,29.12,SW,225,2.8,5.8,72,0.00,,,0.00,Rainwise IP-100,2013-01-04 22:02:00,
2013-01-04 16:07:00,25.3,18.0,29.12,SW,225,2.8,6.1,72,0.00,,,0.00,Rainwise IP-100,2013-01-04 22:07:00,
2013-01-04 16:12:00,25.3,18.0,29.12,WSW,247,2.8,6.8,72,0.00,,,0.00,Rainwise IP-100,2013-01-04 22:12:00,
2013-01-04 16:17:00,25.2,18.0,29.13,SW,225,4.7,5.8,72,0.00,,,0.00,Rainwise IP-100,2013-01-04 22:17:00,
2013-01-04 16:22:00,25.2,18.0,29.13,WSW,247,1.4,6.8,72,0.00,,,0.00,Rainwise IP-100,2013-01-04 22:22:00,
2013-01-04 16:27:00,24.9,18.0,29.13,SSW,202,3.5,6.3,73,0.00,,,0.00,Rainwise IP-100,2013-01-04 22:27:00,
2013-01-04 16:32:00,24.7,18.0,29.13,WSW,247,6.3,8.4,73,0.00,,,0.00,Rainwise IP-100,2013-01-04 22:32:00,
2013-01-04 16:37:00,24.5,18.0,29.13,WSW,247,4.9,7.2,74,0.00,,,0.00,Rainwise IP-100,2013-01-04 22:37:00,
2013-01-04 16:42:00,24.2,18.0,29.13,SW,225,3.3,6.3,74,0.00,,,0.00,Rainwise IP-100,2013-01-04 22:42:00,
2013-01-04 16:47:00,23.9,18.0,29.13,WSW,247,0.0,4.0,74,0.00,,,0.00,Rainwise IP-100,2013-01-04 22:47:00,
2013-01-04 16:52:00,23.8,18.0,29.13,WSW,247,0.0,2.1,75,0.00,,,0.00,Rainwise IP-100,2013-01-04 22:52:00,
2013-01-04 16:57:00,23.7,18.0,29.13,SW,225,0.0,3.0,75,0.00,,,0.00,Rainwise IP-100,2013-01-04 22:57:00,
2013-01-04 17:02:00,23.6,18.0,29.13,WSW,247,1.6,3.3,76,0.00,,,0.00,Rainwise IP-100,2013-01-04 23:02:00,
2013-01-04 17:07:00,23.5,18.0,29.13,SW,225,1.6,2.8,76,0.00,,,0.00,Rainwise IP-100,2013-01-04 23:07:00,
2013-01-04 17:12:00,23.4,16.0,29.13,WSW,247,0.0,5.4,76,0.00,,,0.00,Rainwise IP-100,2013-01-04 23:12:00,
2013-01-04 17:17:00,23.2,16.0,29.13,WSW,247,1.4,2.1,76,0.00,,,0.00,Rainwise IP-100,2013-01-04 23:17:00,
2013-01-04 17:22:00,22.7,16.0,29.13,WSW,247,0.0,1.6,77,0.00,,,0.00,Rainwise IP-100,2013-01-04 23:22:00,
2013-01-04 17:27:00,22.3,16.0,29.12,WSW,247,0.0,0.0,77,0.00,,,0.00,Rainwise IP-100,2013-01-04 23:27:00,
2013-01-04 17:32:00,22.1,16.0,29.12,WSW,247,0.0,0.0,78,0.00,,,0.00,Rainwise IP-100,2013-01-04 23:32:00,
2013-01-04 17:37:00,21.8,16.0,29.12,WSW,247,0.0,1.2,79,0.00,,,0.00,Rainwise IP-100,2013-01-04 23:37:00,
2013-01-04 17:42:00,21.5,18.0,29.12,WSW,247,0.0,1.2,80,0.00,,,0.00,Rainwise IP-100,2013-01-04 23:42:00,
2013-01-04 17:47:00,21.3,16.0,29.12,WSW,247,0.0,0.0,80,0.00,,,0.00,Rainwise IP-100,2013-01-04 23:47:00,
2013-01-04 17:52:00,21.4,16.0,29.12,WSW,247,0.0,1.6,80,0.00,,,0.00,Rainwise IP-100,2013-01-04 23:52:00,
2013-01-04 17:57:00,21.4,16.0,29.12,WSW,247,0.0,0.0,81,0.00,,,0.00,Rainwise IP-100,2013-01-04 23:57:00,
2013-01-04 18:02:00,21.2,16.0,29.12,WSW,247,0.0,0.0,81,0.00,,,0.00,Rainwise IP-100,2013-01-05 00:02:00,
2013-01-04 18:07:00,20.7,16.0,29.12,WSW,247,0.0,0.0,81,0.00,,,0.00,Rainwise IP-100,2013-01-05 00:07:00,
2013-01-04 18:12:00,20.2,16.0,29.12,WSW,247,0.0,0.0,81,0.00,,,0.00,Rainwise IP-100,2013-01-05 00:12:00,
2013-01-04 18:17:00,19.9,16.0,29.12,WSW,247,0.0,0.0,82,0.00,,,0.00,Rainwise IP-100,2013-01-05 00:17:00,
2013-01-04 18:22:00,19.7,16.0,29.12,WSW,247,0.0,0.0,83,0.00,,,0.00,Rainwise IP-100,2013-01-05 00:22:00,
2013-01-04 18:27:00,19.6,16.0,29.13,WSW,247,0.0,0.0,84,0.00,,,0.00,Rainwise IP-100,2013-01-05 00:27:00,
2013-01-04 18:32:00,19.5,16.0,29.13,SW,225,0.0,1.4,84,0.00,,,0.00,Rainwise IP-100,2013-01-05 00:32:00,
2013-01-04 18:37:00,19.5,16.0,29.13,SW,225,0.0,1.4,84,0.00,,,0.00,Rainwise IP-100,2013-01-05 00:37:00,
2013-01-04 18:42:00,19.8,16.0,29.13,SW,225,0.0,1.6,85,0.00,,,0.00,Rainwise IP-100,2013-01-05 00:42:00,
2013-01-04 18:47:00,19.5,16.0,29.12,SW,225,0.0,0.0,84,0.00,,,0.00,Rainwise IP-100,2013-01-05 00:47:00,
2013-01-04 18:52:00,18.9,16.0,29.12,NW,315,0.0,1.2,84,0.00,,,0.00,Rainwise IP-100,2013-01-05 00:52:00,
2013-01-04 18:57:00,18.5,16.0,29.12,NW,315,0.0,0.0,85,0.00,,,0.00,Rainwise IP-100,2013-01-05 00:57:00,
2013-01-04 19:02:00,18.1,16.0,29.12,NW,315,0.0,0.0,86,0.00,,,0.00,Rainwise IP-100,2013-01-05 01:02:00,
2013-01-04 19:07:00,17.9,16.0,29.12,NW,315,0.0,0.0,86,0.00,,,0.00,Rainwise IP-100,2013-01-05 01:07:00,
2013-01-04 19:12:00,17.8,16.0,29.11,NW,315,0.0,0.0,87,0.00,,,0.00,Rainwise IP-100,2013-01-05 01:12:00,
2013-01-04 19:17:00,18.0,16.0,29.12,NW,315,0.0,0.0,87,0.00,,,0.00,Rainwise IP-100,2013-01-05 01:17:00,
2013-01-04 19:22:00,18.1,16.0,29.12,NW,315,0.0,0.0,88,0.00,,,0.00,Rainwise IP-100,2013-01-05 01:22:00,
2013-01-04 19:27:00,18.1,16.0,29.12,NW,315,0.0,0.0,88,0.00,,,0.00,Rainwise IP-100,2013-01-05 01:27:00,
2013-01-04 19:32:00,17.9,16.0,29.12,South,180,0.0,1.4,88,0.00,,,0.00,Rainwise IP-100,2013-01-05 01:32:00,
2013-01-04 19:37:00,17.6,16.0,29.12,South,180,1.2,1.6,88,0.00,,,0.00,Rainwise IP-100,2013-01-05 01:37:00,
2013-01-04 19:42:00,17.3,16.0,29.12,South,180,0.0,1.4,88,0.00,,,0.00,Rainwise IP-100,2013-01-05 01:42:00,
2013-01-04 19:47:00,17.0,16.0,29.12,South,180,0.0,1.2,89,0.00,,,0.00,Rainwise IP-100,2013-01-05 01:47:00,
2013-01-04 19:52:00,16.1,14.0,29.11,South,180,1.4,1.6,88,0.00,,,0.00,Rainwise IP-100,2013-01-05 01:52:00,
2013-01-04 19:57:00,15.9,14.0,29.11,South,180,0.0,1.6,89,0.00,,,0.00,Rainwise IP-100,2013-01-05 01:57:00,
2013-01-04 20:02:00,15.8,14.0,29.11,SE,135,1.4,2.1,89,0.00,,,0.00,Rainwise IP-100,2013-01-05 02:02:00,
2013-01-04 20:07:00,15.3,14.0,29.11,SE,135,1.4,1.9,90,0.00,,,0.00,Rainwise IP-100,2013-01-05 02:07:00,
2013-01-04 20:12:00,15.3,14.0,29.11,SE,135,0.0,1.6,90,0.00,,,0.00,Rainwise IP-100,2013-01-05 02:12:00,
2013-01-04 20:17:00,15.1,14.0,29.11,SE,135,1.2,1.2,91,0.00,,,0.00,Rainwise IP-100,2013-01-05 02:17:00,
2013-01-04 20:22:00,14.8,14.0,29.11,SSE,157,2.1,2.1,91,0.00,,,0.00,Rainwise IP-100,2013-01-05 02:22:00,
2013-01-04 20:27:00,14.4,11.0,29.12,SSE,157,0.0,2.8,91,0.00,,,0.00,Rainwise IP-100,2013-01-05 02:27:00,
2013-01-04 20:32:00,14.4,11.0,29.11,SSE,157,0.0,0.0,91,0.00,,,0.00,Rainwise IP-100,2013-01-05 02:32:00,
2013-01-04 20:37:00,15.0,14.0,29.12,SSE,157,1.2,1.4,92,0.00,,,0.00,Rainwise IP-100,2013-01-05 02:37:00,
2013-01-04 20:42:00,15.1,14.0,29.12,SSE,157,0.0,1.4,92,0.00,,,0.00,Rainwise IP-100,2013-01-05 02:42:00,
2013-01-04 20:47:00,15.1,14.0,29.12,SW,225,0.0,4.0,92,0.00,,,0.00,Rainwise IP-100,2013-01-05 02:47:00,
2013-01-04 20:52:00,15.5,14.0,29.12,SW,225,0.0,1.4,92,0.00,,,0.00,Rainwise IP-100,2013-01-05 02:52:00,
2013-01-04 20:57:00,15.9,14.0,29.12,SW,225,0.0,1.4,92,0.00,,,0.00,Rainwise IP-100,2013-01-05 02:57:00,
2013-01-04 21:02:00,16.3,14.0,29.12,SW,225,1.4,1.9,92,0.00,,,0.00,Rainwise IP-100,2013-01-05 03:02:00,
2013-01-04 21:07:00,16.6,16.0,29.12,SW,225,0.0,1.9,91,0.00,,,0.00,Rainwise IP-100,2013-01-05 03:07:00,
2013-01-04 21:12:00,16.6,16.0,29.12,SW,225,0.0,1.2,91,0.00,,,0.00,Rainwise IP-100,2013-01-05 03:12:00,
2013-01-04 21:17:00,16.7,16.0,29.12,SW,225,0.0,0.0,91,0.00,,,0.00,Rainwise IP-100,2013-01-05 03:17:00,
2013-01-04 21:22:00,16.5,16.0,29.12,SW,225,0.0,0.0,91,0.00,,,0.00,Rainwise IP-100,2013-01-05 03:22:00,
2013-01-04 21:27:00,16.2,14.0,29.12,SW,225,0.0,0.0,91,0.00,,,0.00,Rainwise IP-100,2013-01-05 03:27:00,
2013-01-04 21:32:00,16.0,14.0,29.12,SW,225,0.0,0.0,90,0.00,,,0.00,Rainwise IP-100,2013-01-05 03:32:00,
2013-01-04 21:37:00,15.4,14.0,29.12,West,270,2.3,2.3,90,0.00,,,0.00,Rainwise IP-100,2013-01-05 03:37:00,
2013-01-04 21:42:00,15.2,14.0,29.12,West,270,1.9,2.6,90,0.00,,,0.00,Rainwise IP-100,2013-01-05 03:42:00,
2013-01-04 21:47:00,15.2,14.0,29.12,West,270,1.4,1.9,91,0.00,,,0.00,Rainwise IP-100,2013-01-05 03:47:00,
2013-01-04 21:52:00,16.0,14.0,29.11,WSW,247,0.0,2.1,91,0.00,,,0.00,Rainwise IP-100,2013-01-05 03:52:00,
2013-01-04 21:57:00,16.5,16.0,29.12,WSW,247,0.0,0.0,91,0.00,,,0.00,Rainwise IP-100,2013-01-05 03:57:00,
2013-01-04 22:02:00,15.6,14.0,29.11,WSW,247,0.0,0.0,90,0.00,,,0.00,Rainwise IP-100,2013-01-05 04:02:00,
2013-01-04 22:07:00,15.1,14.0,29.11,ESE,112,1.2,1.6,90,0.00,,,0.00,Rainwise IP-100,2013-01-05 04:07:00,
2013-01-04 22:12:00,14.5,14.0,29.11,ESE,112,2.3,2.6,90,0.00,,,0.00,Rainwise IP-100,2013-01-05 04:12:00,
2013-01-04 22:17:00,14.5,14.0,29.11,East,90,2.1,3.5,91,0.00,,,0.00,Rainwise IP-100,2013-01-05 04:17:00,
2013-01-04 22:22:00,15.1,14.0,29.11,East,90,2.3,2.8,91,0.00,,,0.00,Rainwise IP-100,2013-01-05 04:22:00,
2013-01-04 22:27:00,15.4,14.0,29.10,East,90,1.4,2.6,92,0.00,,,0.00,Rainwise IP-100,2013-01-05 04:27:00,
2013-01-04 22:32:00,15.4,14.0,29.09,East,90,0.0,2.3,92,0.00,,,0.00,Rainwise IP-100,2013-01-05 04:32:00,
2013-01-04 22:37:00,14.8,14.0,29.09,East,90,1.9,2.1,92,0.00,,,0.00,Rainwise IP-100,2013-01-05 04:37:00,
2013-01-04 22:42:00,14.3,11.0,29.09,East,90,0.0,1.9,92,0.00,,,0.00,Rainwise IP-100,2013-01-05 04:42:00,
2013-01-04 22:47:00,14.4,11.0,29.09,NE,45,2.6,3.0,92,0.00,,,0.00,Rainwise IP-100,2013-01-05 04:47:00,
2013-01-04 22:52:00,14.6,14.0,29.09,NNE,22,2.8,3.0,92,0.00,,,0.00,Rainwise IP-100,2013-01-05 04:52:00,
2013-01-04 22:57:00,15.0,14.0,29.09,NW,315,0.0,3.5,92,0.00,,,0.00,Rainwise IP-100,2013-01-05 04:57:00,
2013-01-04 23:00:00,15.1,14.0,29.09,North,360,2.3,3.3,93,0.00,,,0.00,Rainwise IP-100,2013-01-05 05:00:00,
2013-01-04 23:05:00,15.0,14.0,29.09,North,360,0.0,2.1,93,0.00,,,0.00,Rainwise IP-100,2013-01-05 05:05:00,
2013-01-04 23:10:00,15.0,14.0,29.09,North,360,0.0,1.9,92,0.00,,,0.00,Rainwise IP-100,2013-01-05 05:10:00,
2013-01-04 23:15:00,14.9,14.0,29.09,North,360,0.0,1.2,92,0.00,,,0.00,Rainwise IP-100,2013-01-05 05:15:00,
2013-01-04 23:20:00,14.7,14.0,29.09,North,360,0.0,0.0,92,0.00,,,0.00,Rainwise IP-100,2013-01-05 05:20:00,
2013-01-04 23:25:00,14.0,11.0,29.09,South,180,1.6,2.6,91,0.00,,,0.00,Rainwise IP-100,2013-01-05 05:25:00,
2013-01-04 23:30:00,13.1,11.0,29.09,South,180,0.0,1.9,91,0.00,,,0.00,Rainwise IP-100,2013-01-05 05:30:00,
2013-01-04 23:35:00,12.8,11.0,29.09,South,180,1.2,1.4,91,0.00,,,0.00,Rainwise IP-100,2013-01-05 05:35:00,
2013-01-04 23:40:00,12.9,11.0,29.09,South,180,0.0,1.4,92,0.00,,,0.00,Rainwise IP-100,2013-01-05 05:40:00,
2013-01-04 23:45:00,13.0,11.0,29.09,SSE,157,2.3,2.6,92,0.00,,,0.00,Rainwise IP-100,2013-01-05 05:45:00,
2013-01-04 23:50:00,12.8,11.0,29.09,SSE,157,0.0,2.8,93,0.00,,,0.00,Rainwise IP-100,2013-01-05 05:50:00,
2013-01-04 23:55:00,12.6,11.0,29.09,SSE,157,1.2,1.4,93,0.00,,,0.00,Rainwise IP-100,2013-01-05 05:55:00,